When you browse on this site, cookies collect data to enhance your experience and personalize the content and advertising you see.
Visit our Privacy Policy to learn more. By continuing to use the site, you agree to this use of cookies and data.
  • In Hungary
  • List of Countries
  • For 7 days
  • Water Temperature
  • Satellite Maps
  • Weather Map
  • News
  • Weather Widgets
  • user-avatar
    Login

    Hourly Weather Jankowa

    Today, 19 May, Sunday

    Time Temperature Precipitation Wind Pressure Humidity
    00:00 +17°C° 0.8 mm 2 mps 743 mmHg 95%
    01:00 +16°C° 0 mm 3 mps 743 mmHg 94%
    02:00 +16°C° 0.5 mm 3 mps 743 mmHg 95%
    03:00 +16°C° 0.5 mm 2 mps 743 mmHg 96%
    04:00 +16°C° 0.5 mm 2 mps 743 mmHg 97%
    05:00 +17°C° 0.4 mm 3 mps 743 mmHg 95%
    06:00 +17°C° 0.4 mm 3 mps 743 mmHg 94%
    07:00 +18°C° 0 mm 4 mps 743 mmHg 92%
    08:00 +19°C° 0.3 mm 4 mps 743 mmHg 89%
    09:00 +19°C° 0.3 mm 4 mps 743 mmHg 86%
    10:00 +20°C° 0.3 mm 4 mps 743 mmHg 82%
    11:00 +22°C° 0.2 mm 4 mps 742 mmHg 76%
    12:00 +23°C° 0.2 mm 4 mps 742 mmHg 69%
    13:00 +25°C° 0 mm 3 mps 743 mmHg 65%
    14:00 +25°C° 0.1 mm 3 mps 743 mmHg 64%
    15:00 +25°C° 0.1 mm 3 mps 743 mmHg 63%
    16:00 +25°C° 0.1 mm 3 mps 742 mmHg 61%
    17:00 +24°C° 0.1 mm 3 mps 742 mmHg 69%
    18:00 +21°C° 0.1 mm 3 mps 742 mmHg 77%
    19:00 +20°C° 0.1 mm 3 mps 742 mmHg 85%
    20:00 +19°C° 0 mm 3 mps 742 mmHg 88%
    21:00 +18°C° 0 mm 3 mps 742 mmHg 91%
    22:00 +17°C° 0 mm 3 mps 742 mmHg 94%
    23:00 +17°C° 0 mm 3 mps 742 mmHg 94%

    Tomorrow, 20 May, Monday

    Time Temperature Precipitation Wind Pressure Humidity
    00:00 +16°C° 0 mm 3 mps 742 mmHg 95%
    01:00 +16°C° 0 mm 3 mps 742 mmHg 95%
    02:00 +16°C° 0 mm 3 mps 741 mmHg 96%
    03:00 +16°C° 0 mm 3 mps 741 mmHg 96%
    04:00 +15°C° 0 mm 4 mps 741 mmHg 97%
    05:00 +17°C° 0 mm 4 mps 741 mmHg 93%
    06:00 +19°C° 0 mm 5 mps 741 mmHg 90%
    07:00 +20°C° 0 mm 6 mps 741 mmHg 87%
    08:00 +21°C° 0 mm 6 mps 741 mmHg 85%
    09:00 +21°C° 0 mm 6 mps 741 mmHg 82%
    10:00 +22°C° 0 mm 6 mps 741 mmHg 80%
    11:00 +23°C° 0.7 mm 6 mps 741 mmHg 74%
    12:00 +26°C° 0.7 mm 6 mps 741 mmHg 68%
    13:00 +27°C° 0.7 mm 5 mps 741 mmHg 62%
    14:00 +26°C° 0.3 mm 5 mps 741 mmHg 65%
    15:00 +25°C° 0.3 mm 5 mps 740 mmHg 68%
    16:00 +25°C° 0.3 mm 5 mps 740 mmHg 71%
    17:00 +22°C° 0 mm 5 mps 740 mmHg 76%
    18:00 +21°C° 0 mm 4 mps 740 mmHg 81%
    19:00 +19°C° 0 mm 3 mps 740 mmHg 86%
    20:00 +18°C° 0 mm 3 mps 740 mmHg 89%
    21:00 +17°C° 0 mm 3 mps 740 mmHg 91%
    22:00 +17°C° 0 mm 3 mps 741 mmHg 94%
    23:00 +16°C° 0.1 mm 3 mps 741 mmHg 94%

    Day after tomorrow, 21 May, Tuesday

    Time Temperature Precipitation Wind Pressure Humidity
    00:00 +16°C° 0.1 mm 3 mps 741 mmHg 94%
    01:00 +16°C° 0.1 mm 3 mps 740 mmHg 94%
    02:00 +16°C° 0 mm 2 mps 740 mmHg 93%
    03:00 +16°C° 0 mm 2 mps 740 mmHg 91%
    04:00 +16°C° 0 mm 2 mps 740 mmHg 89%
    05:00 +16°C° 0.3 mm 2 mps 740 mmHg 88%
    06:00 +18°C° 0.3 mm 1 mps 740 mmHg 86%
    07:00 +19°C° 0.3 mm 1 mps 740 mmHg 84%
    08:00 +19°C° 0.3 mm 1 mps 740 mmHg 84%
    09:00 +19°C° 0.3 mm 1 mps 740 mmHg 84%
    10:00 +18°C° 0.3 mm 2 mps 740 mmHg 84%
    11:00 +19°C° 0.9 mm 3 mps 740 mmHg 81%
    12:00 +20°C° 0.9 mm 4 mps 739 mmHg 79%
    13:00 +21°C° 0.9 mm 5 mps 739 mmHg 76%
    14:00 +21°C° 2 mm 5 mps 739 mmHg 76%
    15:00 +21°C° 2 mm 5 mps 738 mmHg 76%
    16:00 +20°C° 2 mm 5 mps 738 mmHg 76%
    17:00 +19°C° 0.9 mm 4 mps 738 mmHg 81%
    18:00 +18°C° 0.9 mm 3 mps 738 mmHg 85%
    19:00 +16°C° 0.9 mm 3 mps 738 mmHg 90%
    20:00 +15°C° 0.3 mm 4 mps 739 mmHg 91%
    21:00 +14°C° 0.3 mm 5 mps 739 mmHg 91%
    22:00 +14°C° 0.3 mm 6 mps 739 mmHg 92%
    23:00 +14°C° 0.1 mm 6 mps 739 mmHg 92%

    22 May, Wednesday

    Time Temperature Precipitation Wind Pressure Humidity
    00:00 +14°C° 0.1 mm 6 mps 739 mmHg 92%
    01:00 +14°C° 0.1 mm 6 mps 739 mmHg 92%
    02:00 +13°C° 0 mm 6 mps 739 mmHg 92%
    03:00 +13°C° 0 mm 5 mps 739 mmHg 93%
    04:00 +12°C° 0 mm 5 mps 740 mmHg 94%
    05:00 +13°C° 0 mm 5 mps 740 mmHg 91%
    06:00 +14°C° 0 mm 5 mps 740 mmHg 88%
    07:00 +15°C° 0 mm 5 mps 740 mmHg 85%
    08:00 +16°C° 0.1 mm 5 mps 740 mmHg 82%
    09:00 +17°C° 0.1 mm 5 mps 740 mmHg 79%
    10:00 +17°C° 0.1 mm 5 mps 741 mmHg 76%
    11:00 +19°C° 0.1 mm 5 mps 741 mmHg 74%
    12:00 +19°C° 0.1 mm 5 mps 741 mmHg 73%
    13:00 +20°C° 0.1 mm 5 mps 741 mmHg 71%
    14:00 +20°C° 0 mm 5 mps 740 mmHg 72%
    15:00 +19°C° 0 mm 4 mps 740 mmHg 74%
    16:00 +19°C° 0 mm 4 mps 740 mmHg 75%
    17:00 +18°C° 0.2 mm 3 mps 740 mmHg 80%
    18:00 +18°C° 0.2 mm 3 mps 740 mmHg 84%
    19:00 +17°C° 0.2 mm 3 mps 740 mmHg 89%
    20:00 +16°C° 0.2 mm 3 mps 740 mmHg 91%
    21:00 +14°C° 0.2 mm 3 mps 741 mmHg 94%
    22:00 +15°C° 0.2 mm 2 mps 741 mmHg 96%
    23:00 +14°C° 0 mm 2 mps 741 mmHg 96%

    23 May, Thursday

    Time Temperature Precipitation Wind Pressure Humidity
    00:00 +14°C° 0 mm 2 mps 741 mmHg 97%
    01:00 +14°C° 0 mm 2 mps 741 mmHg 97%
    02:00 +14°C° 0.1 mm 2 mps 741 mmHg 97%
    03:00 +14°C° 0.1 mm 1 mps 741 mmHg 97%
    04:00 +14°C° 0.1 mm 1 mps 741 mmHg 98%
    05:00 +14°C° 0.4 mm 1 mps 741 mmHg 96%
    06:00 +15°C° 0.4 mm 2 mps 742 mmHg 95%
    07:00 +15°C° 0.4 mm 2 mps 742 mmHg 93%
    08:00 +16°C° 0.4 mm 2 mps 742 mmHg 92%
    09:00 +17°C° 0.4 mm 3 mps 742 mmHg 90%
    10:00 +17°C° 0.4 mm 3 mps 743 mmHg 89%
    11:00 +18°C° 1.7 mm 4 mps 743 mmHg 85%
    12:00 +19°C° 1.7 mm 6 mps 743 mmHg 82%
    13:00 +20°C° 1.7 mm 7 mps 743 mmHg 79%
    14:00 +18°C° 1.5 mm 8 mps 743 mmHg 83%
    15:00 +16°C° 1.5 mm 8 mps 743 mmHg 87%
    16:00 +15°C° 1.5 mm 9 mps 744 mmHg 91%
    17:00 +15°C° 0.5 mm 8 mps 744 mmHg 91%
    18:00 +13°C° 0.5 mm 8 mps 744 mmHg 92%
    19:00 +12°C° 0.5 mm 8 mps 744 mmHg 92%
    20:00 +12°C° 0.3 mm 7 mps 745 mmHg 91%
    21:00 +11°C° 0.3 mm 7 mps 745 mmHg 89%
    22:00 +10°C° 0.3 mm 6 mps 745 mmHg 88%
    23:00 +9°C° 0 mm 6 mps 746 mmHg 88%

    24 May, Friday

    Time Temperature Precipitation Wind Pressure Humidity
    00:00 +9°C° 0 mm 6 mps 746 mmHg 88%
    01:00 +8°C° 0 mm 5 mps 746 mmHg 88%
    02:00 +8°C° 0 mm 5 mps 746 mmHg 90%
    03:00 +7°C° 0 mm 5 mps 746 mmHg 92%
    04:00 +7°C° 0 mm 5 mps 746 mmHg 93%
    05:00 +8°C° 0 mm 5 mps 747 mmHg 89%
    06:00 +9°C° 0 mm 5 mps 747 mmHg 85%
    07:00 +10°C° 0 mm 5 mps 747 mmHg 82%
    08:00 +13°C° 0 mm 5 mps 747 mmHg 76%
    09:00 +14°C° 0 mm 5 mps 747 mmHg 71%
    10:00 +15°C° 0 mm 5 mps 746 mmHg 66%
    11:00 +16°C° 0 mm 5 mps 746 mmHg 63%
    12:00 +17°C° 0 mm 5 mps 746 mmHg 61%
    13:00 +19°C° 0 mm 5 mps 746 mmHg 58%
    14:00 +19°C° 0 mm 5 mps 745 mmHg 59%
    15:00 +19°C° 0 mm 4 mps 745 mmHg 60%
    16:00 +19°C° 0 mm 4 mps 745 mmHg 60%
    17:00 +17°C° 0 mm 3 mps 745 mmHg 66%
    18:00 +16°C° 0 mm 2 mps 744 mmHg 73%
    19:00 +15°C° 0 mm 2 mps 744 mmHg 79%
    20:00 +14°C° 0 mm 2 mps 744 mmHg 80%
    21:00 +14°C° 0 mm 2 mps 744 mmHg 81%
    22:00 +13°C° 0 mm 2 mps 745 mmHg 83%
    23:00 +13°C° 0 mm 2 mps 744 mmHg 85%
    Show more